Millville, NJ

4:29 AM EST on November 19, 2017 (GMT -0500)
Millville Municipal

Weather History for KMIV - January, 2012

Change the Weather History Date:

Tuesday, January 3, 2012

  Actual Average Record
Temperature  
Mean Temperature 26 °F -  
Max Temperature 32 °F 42 °F 64 °F (2000)
Min Temperature 21 °F 25 °F 0 °F (2014)
Degree Days  
Heating Degree Days 38    
Moisture  
Dew Point 8 °F    
Average Humidity 46    
Maximum Humidity 66    
Minimum Humidity 29    
Precipitation  
Precipitation 0.00 in - - ()
Sea Level Pressure  
Sea Level Pressure 29.98 in    
Wind  
Wind Speed 9 mph (NW)    
Max Wind Speed 20 mph    
Max Gust Speed 31 mph    
Visibility 10 miles    
Events      
Averages and records for this station are not official NWS values.
T = Trace of Precipitation, MM = Missing Value Source: NWS Daily Summary

Daily Weather History Graph

Daily Weather History Graph

Search for Another Location

Airport or City:

Trip Planner

Search our weather history database for the weather conditions in past years. The results will help you decide how hot, cold, wet, or windy it might be!

Date:

Astronomy

Jan. 03, 2012 Rise Set
Actual Time 7:20 AM EST 4:48 PM EST
Civil Twilight 6:50 AM EST 5:18 PM EST
Nautical Twilight 6:16 AM EST 5:52 PM EST
Astronomical Twilight 5:44 AM EST 6:25 PM EST
Moon 12:34 PM EST (1/3) 2:09 AM EST (1/3)
Length of Visible Light 10h 28m
Length of Day
9h 28m
Waxing Gibbous, 72% of the Moon is Illuminated
Jan 3
Waxing Gibbous
Jan 9
Full
Jan 16
Last Quarter
Jan 23
New
Jan 30
First Quarter

Hourly Weather History & Observations

Time (EST) Temp. Windchill Dew Point Humidity Pressure Visibility Wind Dir Wind Speed Gust Speed Precip Events Conditions
12:54 AM 30.9 °F 24.3 °F 19.9 °F 64% 29.87 in 10.0 mi WNW 6.9 mph - N/A   Scattered Clouds
1:54 AM 30.9 °F 23.5 °F 17.1 °F 57% 29.87 in 10.0 mi WNW 8.1 mph - N/A   Clear
2:54 AM 28.9 °F 21.1 °F 18.0 °F 64% 29.87 in 10.0 mi West 8.1 mph - N/A   Clear
3:54 AM 28.0 °F 20.0 °F 18.0 °F 66% 29.87 in 10.0 mi West 8.1 mph - N/A   Clear
4:54 AM 28.4 °F 20.4 °F 17.6 °F 64% 29.87 in 10.0 mi WNW 8.1 mph - N/A   Clear
5:54 AM 28.0 °F 20.8 °F 18.0 °F 66% 29.89 in 10.0 mi WNW 6.9 mph - N/A   Clear
6:54 AM 28.0 °F 20.8 °F 17.1 °F 63% 29.91 in 10.0 mi WNW 6.9 mph - N/A   Clear
7:54 AM 28.0 °F 21.7 °F 17.1 °F 63% 29.93 in 10.0 mi West 5.8 mph - N/A   Clear
8:54 AM 30.0 °F 20.0 °F 12.9 °F 49% 29.93 in 10.0 mi NW 12.7 mph 20.7 mph N/A   Clear
9:54 AM 30.9 °F 21.2 °F 10.0 °F 42% 29.93 in 10.0 mi NW 12.7 mph 27.6 mph N/A   Clear
10:54 AM 28.9 °F 17.3 °F 14.0 °F 54% 29.93 in 10.0 mi NNW 16.1 mph 25.3 mph N/A   Overcast
11:54 AM 32.0 °F 20.8 °F 9.0 °F 38% 29.91 in 10.0 mi NNW 17.3 mph 25.3 mph N/A   Scattered Clouds
12:54 PM 32.0 °F 20.1 °F 5.0 °F 32% 29.92 in 10.0 mi NW 19.6 mph 31.1 mph N/A   Partly Cloudy
1:54 PM 32.0 °F 20.8 °F 5.0 °F 32% 29.94 in 10.0 mi NW 17.3 mph 29.9 mph N/A   Mostly Cloudy
2:54 PM 28.9 °F 16.9 °F 1.9 °F 32% 29.96 in 10.0 mi NW 17.3 mph 29.9 mph N/A   Clear
3:54 PM 28.0 °F 17.5 °F -0.9 °F 29% 30.00 in 10.0 mi NW 12.7 mph 24.2 mph N/A   Clear
4:54 PM 26.1 °F 19.4 °F -0.9 °F 31% 30.04 in 10.0 mi NW 5.8 mph 17.3 mph N/A   Clear
5:54 PM 25.0 °F 17.1 °F -0.0 °F 34% 30.08 in 10.0 mi NW 6.9 mph - N/A   Clear
6:54 PM 24.1 °F 17.0 °F -0.0 °F 35% 30.12 in 10.0 mi NW 5.8 mph - N/A   Clear
7:54 PM 24.1 °F 15.2 °F -2.9 °F 31% 30.14 in 10.0 mi NW 8.1 mph - N/A   Clear
8:54 PM 23.0 °F 14.7 °F -2.2 °F 33% 30.15 in 10.0 mi NW 6.9 mph - N/A   Clear
9:54 PM 21.2 °F 14.9 °F -0.4 °F 39% 30.16 in 10.0 mi WNW 4.6 mph - N/A   Clear
10:54 PM 21.0 °F 13.4 °F 1.0 °F 42% 30.17 in 10.0 mi NW 5.8 mph - N/A   Clear
11:54 PM 21.0 °F 9.9 °F -0.9 °F 38% 30.18 in 10.0 mi NW 10.4 mph - N/A   Clear